Precipitable_Water
0.43 0.34 0.32 0.28 0.27 0.28 0.27 0.29 0.31 0.31 0.33 0.36 0.40 0.41 0.38 0.36 0.35 0.43 0.49 0.64 0.63 0.61 0.58 0.64 0.69 0.71 0.76 0.84 0.84 0.99 1.07 1.09 1.14 1.16 1.18 1.22 1.21 1.21 1.25 1.25 1.24 1.23 1.24 1.34 1.32 1.29 1.29 1.34 1.37 1.36 1.39 1.42 1.48 1.51 1.51 1.49 1.47 1.45 1.47 1.47 1.46 1.54 1.59 1.52 1.48 1.43 1.39 1.34 1.35 1.36 1.30 1.28 1.32 1.31 1.39 1.43 1.47 1.52 1.53 1.55 1.53 1.53 1.51 1.49 1.46 1.44
0.38 0.32 0.29 0.33 0.37 0.35 0.32 0.31 0.33 0.33 0.32 0.32 0.38 0.40 0.40 0.39 0.34 0.37 0.43 0.56 0.65 0.60 0.59 0.63 0.65 0.68 0.75 0.84 0.85 0.91 1.02 1.06 1.11 1.14 1.17 1.20 1.18 1.18 1.22 1.26 1.24 1.27 1.38 1.39 1.35 1.35 1.34 1.32 1.34 1.34 1.34 1.36 1.33 1.41 1.46 1.43 1.44 1.44 1.45 1.42 1.46 1.53 1.55 1.52 1.49 1.41 1.35 1.34 1.30 1.24 1.24 1.29 1.33 1.29 1.31 1.38 1.44 1.45 1.54 1.58 1.57 1.55 1.53 1.51 1.49 1.48
0.31 0.24 0.27 0.37 0.42 0.41 0.39 0.35 0.31 0.31 0.30 0.30 0.33 0.36 0.36 0.38 0.39 0.41 0.39 0.50 0.56 0.53 0.57 0.62 0.60 0.67 0.72 0.80 0.86 0.87 0.94 1.00 1.05 1.09 1.14 1.15 1.13 1.17 1.21 1.27 1.31 1.32 1.30 1.34 1.36 1.36 1.35 1.34 1.33 1.32 1.32 1.31 1.32 1.35 1.37 1.43 1.45 1.44 1.43 1.41 1.45 1.48 1.51 1.52 1.52 1.47 1.34 1.35 1.37 1.31 1.31 1.32 1.32 1.40 1.39 1.42 1.46 1.47 1.47 1.53 1.53 1.54 1.54 1.52 1.49 1.51
0.29 0.25 0.28 0.40 0.44 0.42 0.39 0.37 0.33 0.29 0.31 0.31 0.31 0.31 0.29 0.35 0.33 0.30 0.37 0.43 0.48 0.49 0.50 0.57 0.57 0.64 0.71 0.78 0.85 0.89 0.88 0.96 0.99 1.03 1.11 1.17 1.15 1.17 1.19 1.24 1.30 1.28 1.25 1.27 1.32 1.34 1.37 1.36 1.33 1.32 1.29 1.28 1.29 1.31 1.35 1.38 1.38 1.41 1.40 1.38 1.42 1.43 1.48 1.50 1.52 1.49 1.45 1.39 1.38 1.40 1.39 1.39 1.37 1.32 1.39 1.42 1.44 1.47 1.46 1.44 1.49 1.50 1.50 1.49 1.47 1.50
0.24 0.28 0.36 0.39 0.46 0.44 0.38 0.35 0.33 0.30 0.25 0.31 0.33 0.33 0.30 0.31 0.31 0.31 0.33 0.38 0.43 0.46 0.55 0.57 0.54 0.55 0.62 0.64 0.74 0.87 0.92 0.93 0.94 0.98 1.04 1.18 1.21 1.23 1.23 1.24 1.30 1.28 1.22 1.24 1.29 1.33 1.35 1.33 1.29 1.27 1.27 1.31 1.26 1.24 1.26 1.29 1.30 1.31 1.31 1.35 1.38 1.39 1.40 1.44 1.48 1.48 1.47 1.43 1.37 1.39 1.40 1.42 1.40 1.43 1.39 1.33 1.30 1.35 1.42 1.43 1.43 1.44 1.48 1.46 1.43 1.44
0.32 0.38 0.47 0.38 0.43 0.46 0.40 0.34 0.32 0.33 0.28 0.28 0.33 0.35 0.33 0.32 0.31 0.30 0.34 0.38 0.39 0.40 0.47 0.51 0.44 0.45 0.57 0.62 0.70 0.79 0.85 0.90 0.94 0.93 0.95 1.03 1.12 1.17 1.17 1.18 1.28 1.31 1.31 1.26 1.23 1.26 1.31 1.32 1.31 1.30 1.29 1.25 1.23 1.19 1.23 1.28 1.29 1.28 1.29 1.33 1.37 1.39 1.39 1.39 1.44 1.46 1.44 1.36 1.26 1.22 1.19 1.14 1.18 1.14 1.16 1.09 1.08 1.15 1.25 1.30 1.42 1.46 1.48 1.46 1.42 1.41
0.33 0.40 0.47 0.41 0.37 0.40 0.38 0.33 0.34 0.36 0.32 0.28 0.26 0.32 0.34 0.34 0.33 0.31 0.30 0.31 0.33 0.33 0.46 0.51 0.40 0.40 0.53 0.56 0.65 0.72 0.77 0.85 0.94 0.91 0.94 0.95 0.98 1.03 1.08 1.15 1.21 1.26 1.31 1.35 1.34 1.29 1.27 1.29 1.27 1.27 1.26 1.24 1.19 1.17 1.24 1.30 1.30 1.29 1.28 1.29 1.31 1.31 1.30 1.35 1.38 1.41 1.40 1.34 1.28 1.18 1.12 1.08 1.06 1.03 1.09 1.16 1.18 1.15 1.21 1.28 1.33 1.36 1.41 1.40 1.36 1.37
0.39 0.40 0.43 0.40 0.35 0.32 0.34 0.30 0.33 0.33 0.30 0.27 0.32 0.30 0.29 0.32 0.33 0.31 0.31 0.31 0.31 0.37 0.47 0.47 0.42 0.37 0.41 0.49 0.59 0.65 0.67 0.72 0.79 0.85 0.90 0.91 0.94 0.96 1.01 1.09 1.15 1.22 1.26 1.29 1.32 1.28 1.26 1.27 1.26 1.23 1.22 1.23 1.20 1.22 1.25 1.28 1.30 1.26 1.24 1.25 1.26 1.29 1.30 1.29 1.31 1.32 1.32 1.25 1.23 1.17 1.13 1.11 1.06 1.06 1.06 1.17 1.21 1.24 1.22 1.20 1.23 1.28 1.30 1.32 1.31 1.32
0.44 0.36 0.38 0.34 0.31 0.30 0.28 0.30 0.32 0.34 0.30 0.29 0.35 0.35 0.29 0.30 0.32 0.33 0.34 0.30 0.31 0.31 0.31 0.42 0.45 0.37 0.38 0.49 0.57 0.60 0.59 0.64 0.67 0.71 0.83 0.90 0.96 0.97 0.99 1.04 1.10 1.19 1.24 1.27 1.28 1.25 1.22 1.24 1.28 1.27 1.24 1.25 1.27 1.26 1.22 1.24 1.27 1.26 1.25 1.25 1.24 1.23 1.27 1.28 1.27 1.24 1.25 1.23 1.19 1.14 1.10 1.08 1.07 1.11 1.12 1.19 1.24 1.24 1.24 1.17 1.18 1.21 1.23 1.26 1.29 1.33
0.46 0.43 0.37 0.33 0.30 0.26 0.30 0.34 0.35 0.35 0.30 0.33 0.38 0.41 0.40 0.36 0.30 0.32 0.32 0.29 0.29 0.28 0.25 0.33 0.44 0.35 0.35 0.42 0.48 0.54 0.55 0.57 0.63 0.70 0.74 0.88 0.93 0.97 0.97 1.02 1.09 1.17 1.22 1.27 1.27 1.22 1.19 1.24 1.29 1.32 1.33 1.33 1.30 1.27 1.26 1.27 1.30 1.29 1.27 1.27 1.23 1.20 1.24 1.27 1.26 1.23 1.20 1.20 1.19 1.13 1.10 1.04 1.04 1.07 1.14 1.15 1.13 1.16 1.20 1.14 1.14 1.16 1.18 1.20 1.23 1.30
0.45 0.47 0.43 0.33 0.27 0.29 0.32 0.34 0.34 0.33 0.34 0.39 0.38 0.41 0.40 0.36 0.30 0.26 0.28 0.28 0.28 0.23 0.24 0.28 0.41 0.39 0.31 0.37 0.41 0.46 0.49 0.56 0.60 0.64 0.70 0.84 0.91 0.95 0.99 1.03 1.07 1.14 1.19 1.25 1.28 1.24 1.20 1.24 1.30 1.37 1.37 1.36 1.34 1.32 1.29 1.28 1.30 1.31 1.29 1.29 1.24 1.21 1.22 1.25 1.23 1.20 1.16 1.17 1.16 1.10 1.07 1.04 1.02 1.02 1.05 1.05 1.05 1.07 1.10 1.07 1.07 1.08 1.10 1.15 1.17 1.26
0.45 0.45 0.40 0.35 0.32 0.32 0.36 0.36 0.37 0.36 0.34 0.37 0.37 0.35 0.35 0.29 0.28 0.23 0.20 0.26 0.21 0.19 0.24 0.28 0.28 0.40 0.30 0.31 0.37 0.46 0.53 0.54 0.53 0.55 0.63 0.83 0.88 0.93 1.00 1.09 1.13 1.14 1.17 1.23 1.26 1.22 1.24 1.27 1.30 1.35 1.36 1.37 1.34 1.31 1.29 1.28 1.29 1.30 1.29 1.28 1.24 1.24 1.23 1.24 1.25 1.22 1.17 1.15 1.13 1.10 1.07 1.03 1.05 1.03 0.99 0.97 0.96 0.97 0.96 0.99 1.01 1.06 1.10 1.13 1.18 1.22
0.38 0.38 0.41 0.40 0.38 0.32 0.33 0.34 0.36 0.35 0.35 0.35 0.38 0.34 0.26 0.23 0.21 0.18 0.18 0.15 0.17 0.17 0.22 0.26 0.27 0.25 0.25 0.31 0.42 0.47 0.51 0.51 0.53 0.57 0.63 0.77 0.86 0.95 1.02 1.08 1.12 1.14 1.18 1.20 1.21 1.22 1.21 1.22 1.22 1.23 1.28 1.33 1.30 1.25 1.23 1.22 1.22 1.24 1.26 1.25 1.21 1.21 1.24 1.22 1.24 1.20 1.17 1.15 1.12 1.09 1.07 1.05 1.07 1.05 0.99 0.96 0.93 0.95 0.93 0.96 1.01 1.03 1.03 1.08 1.11 1.15
0.30 0.37 0.39 0.37 0.37 0.35 0.33 0.28 0.30 0.29 0.31 0.33 0.33 0.29 0.22 0.18 0.15 0.13 0.15 0.15 0.14 0.18 0.22 0.24 0.25 0.21 0.25 0.29 0.33 0.38 0.49 0.53 0.56 0.60 0.65 0.78 0.82 0.90 0.94 1.02 1.09 1.13 1.14 1.14 1.16 1.17 1.17 1.19 1.20 1.20 1.22 1.25 1.28 1.28 1.26 1.25 1.23 1.21 1.20 1.20 1.18 1.16 1.21 1.21 1.21 1.19 1.15 1.13 1.11 1.11 1.07 1.06 1.05 1.03 1.00 0.95 0.91 0.93 0.94 0.98 0.99 1.03 1.02 1.02 1.02 1.06
0.23 0.26 0.30 0.33 0.30 0.35 0.31 0.30 0.31 0.29 0.29 0.29 0.31 0.28 0.22 0.18 0.14 0.10 0.12 0.10 0.10 0.12 0.16 0.21 0.20 0.16 0.19 0.22 0.30 0.35 0.38 0.44 0.60 0.63 0.66 0.78 0.81 0.86 0.91 1.01 1.09 1.12 1.12 1.13 1.16 1.17 1.16 1.16 1.18 1.19 1.23 1.27 1.27 1.27 1.28 1.27 1.27 1.29 1.24 1.22 1.17 1.16 1.20 1.20 1.17 1.18 1.13 1.10 1.11 1.12 1.10 1.07 1.07 1.04 1.01 0.97 0.95 0.95 0.94 0.99 1.01 1.05 1.09 1.06 1.06 1.07
0.24 0.27 0.30 0.38 0.38 0.37 0.31 0.32 0.35 0.33 0.31 0.31 0.30 0.30 0.24 0.19 0.20 0.13 0.13 0.13 0.13 0.13 0.12 0.12 0.12 0.15 0.20 0.26 0.30 0.32 0.39 0.38 0.42 0.62 0.61 0.75 0.81 0.83 0.88 0.92 0.96 1.02 1.05 1.10 1.12 1.18 1.21 1.19 1.16 1.21 1.25 1.29 1.31 1.34 1.34 1.30 1.30 1.28 1.26 1.21 1.17 1.16 1.19 1.20 1.18 1.17 1.13 1.09 1.09 1.10 1.07 1.07 1.07 1.06 1.03 1.00 1.00 1.02 1.02 1.01 1.02 1.03 1.08 1.10 1.12 1.16
0.26 0.26 0.37 0.39 0.41 0.38 0.35 0.34 0.33 0.35 0.23 0.28 0.29 0.22 0.20 0.24 0.21 0.17 0.17 0.17 0.17 0.16 0.13 0.14 0.11 0.10 0.15 0.18 0.23 0.25 0.26 0.34 0.38 0.41 0.56 0.63 0.77 0.80 0.81 0.86 0.91 0.96 1.00 1.01 1.04 1.11 1.19 1.22 1.20 1.20 1.22 1.26 1.31 1.34 1.31 1.30 1.30 1.31 1.31 1.25 1.19 1.19 1.24 1.24 1.21 1.16 1.14 1.11 1.07 1.06 1.06 1.07 1.06 1.04 1.00 0.96 0.96 0.99 1.05 1.05 1.05 1.05 1.07 1.13 1.16 1.17
0.27 0.27 0.37 0.38 0.35 0.39 0.41 0.39 0.36 0.35 0.33 0.29 0.23 0.23 0.27 0.27 0.22 0.19 0.16 0.17 0.15 0.13 0.13 0.16 0.13 0.13 0.13 0.10 0.14 0.20 0.19 0.18 0.25 0.39 0.42 0.61 0.71 0.75 0.76 0.79 0.84 0.90 0.94 0.99 1.04 1.10 1.15 1.17 1.17 1.18 1.20 1.22 1.25 1.27 1.31 1.37 1.42 1.43 1.39 1.31 1.20 1.18 1.18 1.22 1.23 1.19 1.17 1.11 1.06 1.04 1.05 1.06 1.05 1.03 1.00 0.99 0.97 1.00 1.04 1.08 1.10 1.11 1.11 1.10 1.14 1.17
0.34 0.28 0.34 0.38 0.37 0.38 0.42 0.41 0.37 0.36 0.36 0.28 0.25 0.31 0.23 0.18 0.15 0.19 0.20 0.16 0.15 0.13 0.14 0.15 0.16 0.16 0.15 0.13 0.16 0.15 0.19 0.21 0.22 0.25 0.35 0.51 0.67 0.73 0.78 0.80 0.84 0.89 0.94 1.00 1.05 1.09 1.14 1.17 1.17 1.17 1.19 1.25 1.29 1.30 1.34 1.42 1.46 1.46 1.43 1.38 1.29 1.17 1.16 1.19 1.21 1.21 1.20 1.19 1.11 1.06 1.02 1.02 1.03 1.04 1.03 1.03 1.02 1.02 1.00 1.01 1.06 1.07 1.07 1.11 1.15 1.18
0.37 0.29 0.31 0.38 0.37 0.39 0.40 0.39 0.30 0.30 0.34 0.35 0.35 0.30 0.30 0.23 0.17 0.17 0.17 0.18 0.19 0.17 0.15 0.15 0.16 0.14 0.19 0.18 0.19 0.21 0.20 0.21 0.23 0.27 0.29 0.38 0.58 0.67 0.71 0.78 0.83 0.87 0.91 0.93 1.00 1.03 1.07 1.15 1.16 1.16 1.19 1.25 1.30 1.33 1.35 1.39 1.45 1.45 1.42 1.37 1.31 1.28 1.27 1.27 1.26 1.25 1.20 1.19 1.17 1.10 1.07 1.06 1.04 1.03 1.01 1.00 1.00 1.00 0.97 0.97 0.98 1.02 1.07 1.07 1.11 1.15
0.33 0.35 0.28 0.35 0.40 0.38 0.33 0.36 0.30 0.31 0.28 0.29 0.29 0.27 0.26 0.23 0.24 0.20 0.21 0.17 0.18 0.18 0.20 0.19 0.18 0.19 0.22 0.24 0.23 0.24 0.25 0.25 0.24 0.26 0.31 0.32 0.49 0.63 0.67 0.72 0.81 0.83 0.85 0.90 0.95 0.98 1.04 1.09 1.15 1.19 1.22 1.23 1.28 1.32 1.34 1.36 1.37 1.40 1.42 1.35 1.33 1.28 1.26 1.25 1.25 1.25 1.20 1.20 1.16 1.12 1.08 1.05 1.05 1.04 1.04 1.03 1.02 0.99 0.98 0.98 0.98 0.98 0.99 1.07 1.09 1.13
0.33 0.32 0.28 0.34 0.35 0.33 0.31 0.35 0.36 0.35 0.33 0.29 0.28 0.25 0.23 0.21 0.19 0.16 0.15 0.19 0.18 0.19 0.21 0.23 0.19 0.24 0.30 0.34 0.31 0.27 0.28 0.27 0.27 0.27 0.33 0.34 0.47 0.57 0.62 0.69 0.77 0.78 0.83 0.88 0.95 0.98 1.03 1.08 1.14 1.18 1.21 1.21 1.22 1.24 1.22 1.29 1.35 1.37 1.34 1.31 1.31 1.33 1.31 1.25 1.23 1.21 1.19 1.19 1.16 1.10 1.06 1.06 1.06 1.04 1.04 1.02 1.01 0.98 0.98 0.98 0.98 0.98 1.01 1.03 1.10 1.16
0.49 0.42 0.34 0.33 0.36 0.34 0.34 0.38 0.40 0.40 0.38 0.34 0.31 0.27 0.25 0.23 0.21 0.18 0.13 0.15 0.16 0.19 0.26 0.25 0.23 0.28 0.33 0.36 0.34 0.31 0.32 0.32 0.30 0.30 0.32 0.36 0.39 0.59 0.64 0.69 0.74 0.79 0.81 0.87 0.93 0.99 1.03 1.08 1.13 1.14 1.11 1.12 1.15 1.19 1.26 1.34 1.34 1.31 1.32 1.31 1.31 1.31 1.32 1.31 1.25 1.22 1.20 1.17 1.15 1.12 1.11 1.10 1.08 1.07 1.06 1.04 1.04 1.01 1.00 1.01 1.02 1.06 1.05 1.04 1.09 1.18
0.46 0.37 0.33 0.35 0.38 0.41 0.41 0.42 0.42 0.42 0.41 0.36 0.34 0.32 0.28 0.23 0.22 0.21 0.19 0.22 0.17 0.17 0.20 0.22 0.19 0.27 0.32 0.39 0.37 0.34 0.35 0.36 0.36 0.35 0.32 0.36 0.36 0.53 0.62 0.68 0.72 0.80 0.80 0.85 0.89 0.97 1.05 1.09 1.14 1.13 1.10 1.11 1.18 1.23 1.30 1.34 1.38 1.39 1.37 1.35 1.36 1.35 1.39 1.41 1.35 1.27 1.19 1.14 1.12 1.13 1.13 1.11 1.10 1.08 1.06 1.03 1.04 1.03 1.05 1.07 1.08 1.11 1.10 1.08 1.09 1.12
0.36 0.39 0.37 0.34 0.33 0.35 0.38 0.41 0.39 0.42 0.42 0.37 0.32 0.31 0.31 0.29 0.26 0.26 0.25 0.27 0.20 0.18 0.18 0.20 0.15 0.24 0.34 0.41 0.41 0.40 0.40 0.39 0.39 0.35 0.35 0.36 0.37 0.49 0.57 0.66 0.72 0.78 0.81 0.81 0.84 0.93 1.03 1.08 1.11 1.11 1.10 1.12 1.17 1.23 1.26 1.32 1.38 1.37 1.39 1.44 1.42 1.44 1.49 1.50 1.47 1.38 1.26 1.15 1.08 1.09 1.11 1.11 1.12 1.10 1.07 1.05 1.06 1.06 1.08 1.10 1.11 1.14 1.13 1.12 1.11 1.13
0.41 0.41 0.40 0.33 0.29 0.26 0.27 0.29 0.30 0.32 0.34 0.36 0.35 0.32 0.31 0.31 0.28 0.26 0.22 0.24 0.19 0.22 0.19 0.17 0.17 0.27 0.35 0.37 0.42 0.43 0.43 0.42 0.39 0.36 0.38 0.38 0.41 0.51 0.60 0.64 0.66 0.67 0.72 0.77 0.83 0.90 0.95 1.00 1.03 1.03 1.03 1.08 1.13 1.20 1.27 1.32 1.34 1.36 1.39 1.44 1.52 1.51 1.53 1.56 1.58 1.52 1.40 1.29 1.16 1.09 1.08 1.09 1.12 1.12 1.09 1.07 1.07 1.07 1.09 1.11 1.13 1.15 1.17 1.16 1.12 1.14
0.41 0.44 0.43 0.41 0.39 0.38 0.44 0.45 0.45 0.39 0.36 0.33 0.34 0.33 0.30 0.30 0.32 0.29 0.27 0.23 0.19 0.23 0.20 0.19 0.19 0.24 0.29 0.32 0.34 0.37 0.37 0.39 0.41 0.41 0.41 0.42 0.48 0.65 0.71 0.70 0.64 0.66 0.73 0.77 0.83 0.92 0.96 0.98 0.97 1.01 1.06 1.12 1.20 1.21 1.23 1.27 1.30 1.34 1.36 1.42 1.48 1.55 1.59 1.62 1.63 1.60 1.53 1.43 1.32 1.19 1.11 1.09 1.09 1.10 1.09 1.10 1.09 1.10 1.10 1.10 1.12 1.15 1.16 1.18 1.17 1.16
0.42 0.38 0.43 0.45 0.46 0.48 0.51 0.52 0.48 0.40 0.34 0.34 0.33 0.32 0.31 0.28 0.29 0.28 0.24 0.21 0.26 0.25 0.21 0.24 0.24 0.23 0.26 0.30 0.33 0.34 0.35 0.43 0.46 0.47 0.51 0.47 0.43 0.46 0.62 0.78 0.73 0.72 0.79 0.83 0.88 0.91 0.95 0.99 1.05 1.07 1.12 1.17 1.23 1.27 1.27 1.30 1.32 1.31 1.31 1.33 1.43 1.52 1.58 1.63 1.64 1.64 1.61 1.55 1.45 1.33 1.20 1.12 1.07 1.07 1.08 1.10 1.10 1.09 1.08 1.09 1.11 1.13 1.17 1.19 1.18 1.19
0.41 0.36 0.43 0.46 0.46 0.50 0.55 0.54 0.56 0.46 0.38 0.36 0.34 0.33 0.30 0.28 0.26 0.25 0.25 0.27 0.27 0.24 0.24 0.27 0.27 0.27 0.32 0.32 0.30 0.29 0.33 0.44 0.45 0.51 0.53 0.55 0.49 0.53 0.59 0.66 0.72 0.73 0.83 0.86 0.89 0.92 0.96 1.01 1.07 1.13 1.18 1.22 1.24 1.22 1.20 1.21 1.26 1.33 1.35 1.37 1.40 1.46 1.51 1.60 1.62 1.63 1.63 1.60 1.53 1.46 1.39 1.28 1.18 1.12 1.09 1.08 1.08 1.07 1.07 1.09 1.11 1.13 1.16 1.18 1.19 1.21
0.41 0.38 0.46 0.49 0.47 0.49 0.56 0.56 0.53 0.50 0.45 0.39 0.36 0.34 0.31 0.28 0.26 0.26 0.28 0.28 0.29 0.28 0.32 0.33 0.32 0.34 0.35 0.36 0.36 0.32 0.45 0.46 0.50 0.56 0.57 0.59 0.56 0.59 0.66 0.69 0.73 0.74 0.80 0.83 0.86 0.90 0.94 0.98 1.03 1.07 1.08 1.12 1.16 1.17 1.18 1.21 1.29 1.34 1.35 1.38 1.43 1.44 1.50 1.55 1.56 1.58 1.60 1.58 1.56 1.55 1.52 1.44 1.32 1.21 1.14 1.11 1.08 1.07 1.07 1.09 1.12 1.14 1.16 1.18 1.19 1.20
0.42 0.36 0.43 0.46 0.45 0.48 0.54 0.56 0.55 0.52 0.47 0.41 0.40 0.37 0.35 0.30 0.27 0.27 0.28 0.29 0.31 0.32 0.36 0.42 0.38 0.40 0.48 0.42 0.40 0.40 0.44 0.46 0.52 0.54 0.53 0.63 0.64 0.65 0.69 0.71 0.75 0.75 0.82 0.89 0.91 0.94 0.96 0.99 1.02 1.04 1.07 1.11 1.15 1.18 1.25 1.28 1.31 1.37 1.40 1.43 1.44 1.44 1.48 1.52 1.50 1.51 1.53 1.55 1.60 1.61 1.58 1.51 1.44 1.35 1.23 1.17 1.13 1.11 1.09 1.08 1.12 1.15 1.17 1.19 1.21 1.21
0.45 0.38 0.42 0.45 0.41 0.43 0.52 0.55 0.52 0.49 0.47 0.45 0.40 0.39 0.35 0.33 0.26 0.26 0.26 0.28 0.30 0.32 0.36 0.44 0.38 0.41 0.47 0.45 0.46 0.45 0.44 0.44 0.48 0.50 0.50 0.55 0.60 0.63 0.71 0.77 0.81 0.86 0.90 0.94 0.97 0.98 0.98 0.97 1.00 1.01 1.07 1.15 1.22 1.26 1.33 1.35 1.38 1.41 1.41 1.44 1.44 1.46 1.50 1.51 1.52 1.51 1.52 1.57 1.62 1.63 1.61 1.58 1.54 1.47 1.37 1.29 1.23 1.19 1.16 1.14 1.13 1.15 1.18 1.20 1.23 1.25
0.44 0.39 0.37 0.39 0.38 0.41 0.49 0.54 0.50 0.48 0.47 0.41 0.38 0.37 0.37 0.34 0.35 0.29 0.29 0.30 0.32 0.39 0.39 0.39 0.42 0.49 0.48 0.49 0.44 0.47 0.48 0.48 0.50 0.51 0.50 0.51 0.54 0.61 0.69 0.77 0.84 0.90 0.95 0.98 1.01 1.02 1.03 1.03 1.07 1.10 1.12 1.17 1.23 1.28 1.32 1.35 1.38 1.38 1.41 1.41 1.45 1.50 1.50 1.49 1.50 1.52 1.53 1.57 1.60 1.61 1.62 1.61 1.57 1.53 1.50 1.43 1.36 1.32 1.29 1.25 1.20 1.19 1.20 1.22 1.27 1.32
0.46 0.42 0.38 0.40 0.38 0.42 0.48 0.54 0.55 0.47 0.35 0.35 0.45 0.46 0.43 0.41 0.39 0.32 0.28 0.30 0.32 0.39 0.40 0.50 0.55 0.57 0.52 0.52 0.49 0.50 0.49 0.50 0.52 0.56 0.58 0.54 0.53 0.61 0.67 0.67 0.72 0.79 0.81 0.88 0.86 0.95 1.06 1.16 1.16 1.17 1.22 1.29 1.39 1.46 1.53 1.51 1.47 1.48 1.48 1.47 1.50 1.49 1.49 1.47 1.48 1.50 1.52 1.56 1.58 1.61 1.63 1.60 1.57 1.53 1.53 1.55 1.53 1.48 1.43 1.39 1.34 1.28 1.27 1.29 1.35 1.36
0.45 0.43 0.40 0.40 0.39 0.40 0.46 0.51 0.45 0.36 0.34 0.48 0.52 0.51 0.48 0.50 0.46 0.41 0.48 0.44 0.36 0.37 0.48 0.51 0.60 0.60 0.57 0.57 0.57 0.57 0.56 0.58 0.59 0.61 0.69 0.71 0.64 0.69 0.70 0.75 0.80 0.88 1.00 0.94 0.87 0.89 0.99 1.04 1.08 1.12 1.19 1.17 1.28 1.40 1.48 1.49 1.46 1.45 1.43 1.46 1.47 1.48 1.46 1.46 1.45 1.46 1.50 1.52 1.57 1.61 1.62 1.62 1.59 1.54 1.54 1.58 1.59 1.59 1.56 1.54 1.51 1.46 1.40 1.37 1.36 1.34
0.43 0.41 0.41 0.39 0.41 0.43 0.43 0.45 0.37 0.36 0.47 0.51 0.53 0.53 0.55 0.53 0.48 0.45 0.46 0.54 0.65 0.70 0.68 0.54 0.55 0.62 0.64 0.62 0.64 0.64 0.62 0.62 0.76 0.88 0.85 0.83 0.83 0.82 0.81 0.89 0.99 1.00 1.04 1.09 1.09 1.02 1.00 0.96 0.94 1.03 1.04 1.08 1.06 1.05 1.14 1.22 1.24 1.23 1.23 1.31 1.35 1.44 1.47 1.45 1.43 1.42 1.46 1.48 1.52 1.56 1.60 1.60 1.59 1.59 1.60 1.60 1.63 1.62 1.60 1.61 1.59 1.54 1.53 1.48 1.42 1.39
0.45 0.43 0.42 0.39 0.44 0.37 0.41 0.44 0.44 0.52 0.47 0.50 0.50 0.56 0.59 0.55 0.51 0.47 0.44 0.58 0.70 0.68 0.68 0.69 0.61 0.63 0.65 0.66 0.67 0.68 0.69 0.76 0.76 0.81 0.94 0.93 0.94 0.97 0.98 1.04 1.08 1.08 1.12 1.13 1.12 1.11 1.10 1.14 1.15 1.11 1.13 1.12 1.12 1.15 1.14 1.23 1.27 1.28 1.21 1.15 1.12 1.18 1.33 1.41 1.40 1.39 1.41 1.43 1.47 1.52 1.58 1.60 1.59 1.59 1.62 1.64 1.62 1.59 1.60 1.60 1.60 1.60 1.60 1.51 1.45 1.41
0.47 0.41 0.42 0.39 0.39 0.44 0.40 0.40 0.43 0.42 0.38 0.47 0.58 0.64 0.69 0.64 0.61 0.57 0.58 0.57 0.76 0.81 0.85 0.79 0.65 0.64 0.65 0.67 0.68 0.71 0.74 0.65 0.63 0.72 0.91 1.02 1.08 1.03 1.06 1.03 1.04 1.11 1.17 1.16 1.16 1.12 1.16 1.18 1.16 1.23 1.23 1.11 1.11 1.12 1.19 1.24 1.21 1.23 1.27 1.27 1.19 1.09 1.04 1.14 1.26 1.35 1.39 1.41 1.45 1.49 1.56 1.60 1.59 1.57 1.58 1.60 1.58 1.58 1.59 1.61 1.62 1.60 1.62 1.52 1.47 1.44
0.44 0.45 0.43 0.40 0.39 0.41 0.41 0.40 0.38 0.39 0.45 0.57 0.59 0.66 0.69 0.70 0.64 0.61 0.55 0.56 0.83 0.95 1.02 0.98 0.90 0.79 0.73 0.72 0.74 0.80 0.70 0.62 0.70 0.85 1.03 1.06 1.09 1.11 1.09 1.08 1.06 1.07 1.11 1.14 1.12 1.11 1.16 1.17 1.14 1.18 1.19 1.15 1.05 1.10 1.14 1.12 1.16 1.16 1.17 1.19 1.24 1.19 1.12 1.06 1.08 1.17 1.27 1.37 1.45 1.49 1.52 1.56 1.58 1.56 1.56 1.54 1.56 1.59 1.58 1.58 1.57 1.61 1.64 1.61 1.60 1.56
0.40 0.40 0.39 0.39 0.39 0.41 0.41 0.40 0.40 0.48 0.49 0.60 0.67 0.72 0.72 0.70 0.63 0.53 0.42 0.53 0.86 1.00 1.07 1.03 0.93 0.91 0.92 0.87 0.89 0.86 0.75 0.65 0.75 0.93 1.12 1.15 1.17 1.17 1.16 1.13 1.11 1.07 1.05 1.11 1.20 1.19 1.17 1.22 1.18 1.05 1.03 1.07 1.10 1.22 1.16 1.07 1.04 1.08 1.11 1.15 1.19 1.14 1.09 1.07 1.10 1.19 1.22 1.26 1.37 1.45 1.49 1.51 1.52 1.54 1.55 1.57 1.61 1.65 1.66 1.68 1.66 1.62 1.61 1.62 1.63 1.60
0.35 0.38 0.40 0.37 0.39 0.39 0.40 0.41 0.44 0.52 0.61 0.67 0.70 0.75 0.73 0.69 0.59 0.47 0.48 0.72 0.96 1.05 1.12 1.09 1.01 1.00 0.95 0.91 0.96 0.88 1.00 1.04 1.04 1.15 1.20 1.22 1.17 1.12 1.17 1.20 1.17 1.11 1.09 1.17 1.18 1.21 1.10 1.08 1.08 1.01 0.96 1.01 1.05 1.10 1.16 1.14 1.01 0.98 1.03 1.07 1.06 1.07 1.11 1.16 1.18 1.20 1.23 1.26 1.28 1.33 1.41 1.47 1.49 1.49 1.53 1.59 1.64 1.69 1.71 1.72 1.69 1.69 1.66 1.63 1.64 1.62
0.34 0.36 0.37 0.39 0.38 0.38 0.39 0.38 0.39 0.54 0.63 0.70 0.75 0.78 0.79 0.64 0.50 0.57 0.87 1.05 1.03 1.06 1.13 1.10 1.02 1.03 1.04 1.01 1.03 1.05 1.10 1.13 1.14 1.19 1.18 1.15 1.11 1.08 1.07 1.09 1.08 1.07 1.13 1.16 1.20 1.17 1.08 1.06 1.00 0.93 0.97 0.94 0.91 0.92 0.95 1.02 1.00 0.96 0.99 0.97 0.97 1.04 1.13 1.17 1.14 1.14 1.17 1.19 1.23 1.28 1.34 1.40 1.47 1.51 1.53 1.58 1.63 1.64 1.67 1.74 1.75 1.72 1.70 1.68 1.64 1.60
0.38 0.32 0.33 0.35 0.38 0.39 0.39 0.37 0.39 0.37 0.59 0.72 0.74 0.74 0.79 0.62 0.75 0.93 1.00 1.02 1.03 1.04 1.06 1.08 1.07 1.07 1.08 1.05 1.10 1.09 1.10 1.11 1.10 1.10 1.11 1.13 1.08 1.05 1.04 1.02 0.99 0.99 0.99 1.00 1.12 1.14 1.09 1.06 1.02 0.96 0.98 0.96 0.94 0.90 0.92 0.93 0.93 0.97 0.95 0.88 0.98 1.08 1.11 1.11 1.11 1.10 1.11 1.14 1.19 1.25 1.32 1.38 1.43 1.48 1.55 1.57 1.60 1.61 1.62 1.71 1.73 1.73 1.72 1.67 1.64 1.61
0.43 0.37 0.38 0.38 0.47 0.36 0.36 0.35 0.42 0.59 0.68 0.76 0.73 0.64 0.76 0.79 0.95 0.98 1.02 0.98 1.01 0.98 0.99 1.02 1.04 1.09 1.10 1.07 1.06 1.06 1.10 1.08 1.09 1.10 1.07 1.05 1.07 1.05 1.03 1.00 1.00 1.02 1.04 1.09 1.10 1.09 1.10 1.07 1.10 1.06 1.01 0.99 0.99 0.97 0.99 1.01 1.02 1.08 0.99 0.92 1.03 1.08 1.11 1.14 1.13 1.13 1.12 1.14 1.20 1.26 1.32 1.38 1.44 1.49 1.54 1.58 1.60 1.61 1.61 1.62 1.66 1.70 1.70 1.69 1.66 1.62
0.44 0.44 0.46 0.39 0.50 0.43 0.44 0.52 0.61 0.69 0.73 0.78 0.77 0.78 0.83 0.86 0.92 1.01 1.00 1.00 0.99 0.98 1.01 0.98 1.00 1.04 1.09 1.10 1.09 1.08 1.04 1.06 1.06 1.09 1.03 1.00 0.99 0.99 0.98 0.97 0.96 0.99 1.01 1.05 1.07 1.06 1.12 1.10 1.11 1.08 1.05 1.03 1.03 1.05 1.11 1.18 1.13 1.10 1.03 1.10 1.17 1.11 1.06 1.10 1.13 1.14 1.14 1.16 1.22 1.27 1.33 1.40 1.44 1.49 1.53 1.59 1.61 1.58 1.60 1.63 1.65 1.61 1.67 1.70 1.67 1.64
0.48 0.49 0.50 0.47 0.47 0.55 0.55 0.57 0.61 0.66 0.69 0.71 0.75 0.80 0.79 0.84 0.90 0.96 0.94 0.96 0.99 1.00 1.02 0.96 0.97 0.97 0.99 1.01 1.01 1.02 1.01 1.02 1.01 1.00 0.99 0.98 0.95 0.92 0.93 0.95 0.97 1.03 1.06 1.09 1.09 1.04 1.06 1.12 1.13 1.07 1.01 1.02 1.08 1.10 1.15 1.20 1.21 1.12 1.14 1.25 1.25 1.24 1.19 1.16 1.15 1.16 1.18 1.22 1.25 1.31 1.36 1.38 1.43 1.49 1.54 1.59 1.63 1.62 1.65 1.65 1.66 1.62 1.64 1.66 1.65 1.65
0.46 0.50 0.46 0.40 0.46 0.43 0.41 0.59 0.58 0.58 0.63 0.66 0.71 0.75 0.79 0.79 0.82 0.92 0.94 0.94 0.96 0.97 1.00 0.99 0.95 0.94 0.93 0.94 0.90 0.92 0.94 0.99 0.98 0.98 0.98 0.97 0.96 0.93 0.90 0.90 0.92 0.98 1.05 1.05 1.12 1.09 1.05 1.06 1.05 1.06 1.03 0.99 1.04 1.12 1.15 1.20 1.24 1.24 1.25 1.26 1.28 1.29 1.28 1.24 1.23 1.23 1.23 1.26 1.31 1.37 1.42 1.40 1.42 1.48 1.55 1.59 1.65 1.68 1.70 1.70 1.69 1.66 1.64 1.65 1.65 1.65
0.38 0.48 0.41 0.44 0.43 0.43 0.46 0.54 0.56 0.58 0.60 0.63 0.64 0.68 0.68 0.73 0.81 0.84 0.89 0.92 0.95 0.97 0.98 0.96 0.93 0.90 0.90 0.88 0.87 0.84 0.86 0.92 0.93 0.93 0.95 0.95 0.95 0.99 0.97 0.93 0.93 0.99 1.08 1.13 1.17 1.13 1.10 1.05 1.06 1.05 1.04 1.03 1.07 1.15 1.15 1.18 1.21 1.27 1.27 1.27 1.30 1.33 1.32 1.30 1.30 1.31 1.31 1.31 1.34 1.38 1.42 1.45 1.50 1.51 1.53 1.59 1.63 1.66 1.70 1.73 1.75 1.71 1.68 1.68 1.68 1.65
0.42 0.43 0.35 0.40 0.38 0.42 0.47 0.51 0.56 0.58 0.57 0.59 0.62 0.66 0.72 0.73 0.74 0.79 0.84 0.85 0.90 0.92 0.94 0.93 0.91 0.89 0.86 0.84 0.87 0.83 0.82 0.85 0.91 0.92 0.93 0.96 0.99 1.01 1.05 1.03 1.01 1.03 1.12 1.13 1.17 1.14 1.08 1.05 1.05 1.06 1.06 1.08 1.18 1.22 1.21 1.21 1.24 1.29 1.32 1.30 1.29 1.30 1.26 1.29 1.34 1.39 1.38 1.41 1.39 1.39 1.43 1.46 1.51 1.55 1.58 1.62 1.68 1.75 1.78 1.72 1.70 1.71 1.76 1.81 1.85 1.81
0.42 0.38 0.44 0.40 0.36 0.35 0.38 0.46 0.55 0.48 0.48 0.55 0.58 0.62 0.66 0.69 0.74 0.74 0.76 0.80 0.83 0.84 0.89 0.90 0.88 0.87 0.84 0.82 0.80 0.81 0.81 0.81 0.84 0.87 0.88 0.93 0.97 1.03 1.08 1.12 1.10 1.10 1.17 1.19 1.20 1.17 1.13 1.13 1.07 1.07 1.08 1.16 1.25 1.28 1.28 1.29 1.32 1.30 1.34 1.36 1.38 1.38 1.32 1.28 1.36 1.38 1.40 1.42 1.42 1.42 1.41 1.43 1.47 1.55 1.58 1.62 1.66 1.69 1.68 1.75 1.77 1.83 1.73 1.70 1.76 1.83
0.41 0.47 0.45 0.40 0.40 0.37 0.46 0.51 0.56 0.56 0.55 0.59 0.62 0.65 0.67 0.70 0.70 0.69 0.72 0.75 0.77 0.80 0.83 0.86 0.84 0.82 0.80 0.78 0.79 0.77 0.77 0.78 0.78 0.81 0.83 0.87 0.95 1.03 1.07 1.12 1.13 1.10 1.13 1.19 1.19 1.21 1.16 1.13 1.13 1.12 1.11 1.23 1.29 1.27 1.30 1.34 1.31 1.33 1.35 1.38 1.43 1.43 1.37 1.31 1.36 1.39 1.39 1.41 1.41 1.42 1.40 1.42 1.46 1.54 1.57 1.61 1.62 1.60 1.55 1.59 1.71 1.82 1.83 1.83 1.82 1.82
Wind_Speed
22 21 22 22 21 22 23 24 23 22 22 22 20 19 19 19 18 18 20 18 15 18 19 19 18 16 17 16 15 18 18 17 18 17 16 15 14 14 14 14 14 14 14 14 14 15 15 17 19 19 20 20 21 21 21 21 22 22 23 23 23 23 22 22 22 21 20 19 18 17 17 16 16 15 15 14 13 13 13 12 12 11 10 9 9 8
23 24 24 23 22 22 23 24 24 24 24 24 21 19 19 19 18 18 19 19 17 18 20 19 17 17 17 17 17 18 18 19 18 17 18 17 16 15 15 15 15 14 14 15 15 15 16 17 18 19 20 21 21 22 22 22 23 23 23 23 23 24 23 22 22 21 20 19 18 18 17 17 16 16 15 14 14 13 13 13 12 11 10 10 9 8
24 25 24 23 22 22 22 23 25 25 25 24 22 20 19 18 18 18 19 19 17 17 19 21 19 17 17 17 19 19 19 20 20 19 19 20 18 16 15 15 15 15 15 16 16 15 16 17 18 19 20 21 21 22 23 23 23 24 23 24 24 24 23 23 22 22 20 19 19 18 18 17 17 16 16 15 14 14 13 13 13 11 11 10 9 8
25 23 23 24 23 23 24 23 24 25 24 24 23 22 21 20 18 17 17 19 18 17 18 20 18 17 16 17 19 21 21 21 21 21 20 20 19 17 17 16 16 16 16 16 16 16 16 17 18 19 20 22 22 22 23 24 24 24 24 24 24 24 24 23 22 22 21 20 19 18 18 17 17 16 16 16 15 14 13 13 13 12 11 10 9 8
26 20 21 25 25 24 25 24 24 24 23 24 25 23 21 21 21 18 16 17 18 18 19 19 17 17 18 18 19 21 22 21 22 21 20 20 21 18 17 17 17 17 16 16 17 17 16 17 18 19 20 22 22 22 24 25 25 25 25 26 25 25 24 24 23 22 21 20 20 19 18 18 17 16 16 16 16 15 13 13 13 12 11 10 9 9
28 22 21 25 25 25 25 25 25 23 22 24 25 25 23 21 22 20 17 17 16 18 21 19 16 17 18 19 20 20 21 21 21 21 20 21 21 20 18 17 17 17 17 16 17 17 17 17 18 20 21 22 22 23 24 25 25 25 26 26 26 25 25 24 24 23 22 21 21 20 19 19 18 17 17 17 16 16 14 13 13 12 12 11 9 9
27 26 24 24 25 26 26 25 25 25 22 22 23 25 25 23 22 21 19 18 16 17 21 22 17 16 18 20 20 21 22 23 22 22 22 22 22 21 19 18 18 17 17 17 17 17 17 18 18 19 21 22 22 23 25 25 26 26 26 26 27 26 25 25 24 23 22 22 22 21 20 20 19 18 18 17 16 16 15 14 14 13 12 11 10 9
26 28 27 26 26 26 26 25 24 25 23 21 21 23 26 25 24 22 20 19 17 16 19 24 20 16 18 20 20 22 23 24 25 24 23 24 23 23 21 20 20 19 18 18 17 18 18 19 19 19 21 22 22 23 24 25 26 26 26 27 27 26 25 25 25 24 23 22 22 22 21 20 19 19 18 17 16 16 15 15 14 13 12 11 10 9
25 29 29 28 27 25 25 24 23 25 24 21 20 21 24 25 25 23 21 19 18 16 17 23 23 18 18 20 20 21 23 24 25 24 24 25 25 24 23 22 21 20 19 19 18 18 19 20 20 20 21 21 22 23 24 25 26 26 27 27 27 27 26 26 25 25 24 23 22 22 22 21 20 19 18 18 17 16 15 15 14 13 13 12 10 10
24 28 29 28 28 26 24 23 24 25 24 22 21 20 21 23 24 24 22 20 18 18 17 20 23 19 17 19 20 21 23 22 22 22 22 26 27 25 24 24 23 21 20 19 19 19 19 20 21 21 20 21 22 23 24 25 26 26 26 27 28 28 27 26 26 25 24 23 22 22 22 21 20 20 18 18 17 16 16 15 14 14 13 12 11 10
26 26 28 29 28 26 24 23 24 26 24 22 22 22 20 21 22 23 23 21 19 20 20 19 20 20 18 19 20 21 23 21 20 22 22 25 28 26 25 25 23 22 21 20 19 19 19 20 21 21 21 22 22 22 24 25 25 26 27 27 28 28 27 27 27 26 25 24 23 22 22 22 21 20 19 19 18 18 16 16 15 14 13 13 12 11
29 27 27 28 29 27 25 24 24 25 25 23 22 22 20 19 20 21 23 23 21 21 22 20 19 20 19 19 20 21 23 21 20 22 23 24 27 27 25 24 23 22 21 21 20 20 19 19 21 22 22 23 23 23 24 25 26 26 27 28 28 28 28 27 27 27 26 25 24 23 23 22 22 21 20 20 19 18 17 16 15 14 14 14 13 12
31 31 27 26 28 29 27 25 24 25 26 25 23 23 21 18 18 20 20 23 22 20 21 21 19 20 19 17 18 20 23 22 19 20 23 25 26 26 26 24 23 23 22 22 21 20 20 20 21 22 23 23 23 24 24 25 26 27 28 28 29 29 29 28 27 27 26 25 24 24 23 23 22 21 21 20 19 19 18 17 16 15 15 14 14 13
29 30 30 28 27 30 30 26 25 25 26 27 25 24 22 18 17 19 18 19 20 20 22 21 20 21 21 18 17 19 21 21 20 20 22 27 28 26 26 25 24 24 22 21 22 21 20 21 21 22 23 23 24 24 24 25 26 26 27 29 29 29 29 29 28 27 26 26 25 24 23 22 22 22 21 21 20 19 18 17 17 16 15 15 14 14
28 28 32 33 27 28 31 29 26 24 25 26 25 23 23 21 18 17 17 17 17 17 21 23 21 20 20 19 18 18 19 19 20 22 23 26 29 27 26 26 26 24 23 21 22 22 22 22 22 23 23 23 24 24 24 24 25 26 27 29 30 30 30 29 28 27 27 26 25 24 24 23 22 22 21 21 20 19 19 18 17 16 16 15 14 14
30 29 30 32 29 27 30 30 27 24 24 25 25 24 25 23 19 15 15 16 14 13 17 22 23 20 19 19 19 20 20 19 19 23 23 24 28 28 27 27 26 25 23 22 22 23 23 23 23 23 24 24 24 24 24 24 25 26 27 28 30 30 30 29 29 28 27 26 25 25 24 23 23 22 21 21 20 19 19 19 18 17 16 16 15 14
29 28 27 30 32 30 29 29 29 27 24 24 27 27 24 23 20 15 14 15 15 14 16 19 21 21 20 21 21 23 24 23 22 22 23 25 28 29 28 27 26 25 23 22 22 23 24 24 24 24 24 24 25 25 24 24 24 25 26 27 29 29 29 29 29 28 27 26 26 25 25 24 23 23 22 21 20 19 19 19 19 18 17 16 16 15
26 26 27 29 33 32 29 29 30 29 25 24 27 26 21 21 22 18 15 15 16 16 16 18 20 19 20 20 20 23 25 26 26 25 23 24 28 29 28 28 27 24 23 22 22 23 24 25 25 25 25 26 26 26 25 24 24 25 25 27 28 29 29 29 29 28 28 27 26 26 25 25 24 23 22 21 20 20 19 19 18 18 17 17 16 16
27 24 26 30 32 31 29 28 30 31 30 26 25 25 22 22 23 21 17 15 16 16 15 18 19 19 20 20 20 22 24 24 25 26 25 24 27 29 27 27 27 25 23 22 22 23 24 25 25 26 26 27 26 26 26 25 25 25 25 26 27 28 29 29 29 28 28 27 27 26 26 25 24 23 23 22 21 20 20 19 19 18 18 17 17 16
30 24 22 27 31 30 29 30 31 32 32 28 24 25 25 23 22 22 20 16 15 14 13 15 16 17 18 19 20 21 21 22 23 25 26 24 26 28 27 26 27 25 23 22 22 23 25 25 25 26 27 27 27 26 26 25 25 25 25 26 27 28 28 29 29 28 28 28 27 27 26 26 25 24 23 22 22 21 21 20 20 19 19 18 18 17
33 29 23 23 28 31 31 33 33 32 32 31 27 26 27 24 22 22 21 19 17 13 12 12 13 14 15 16 19 20 19 20 21 22 24 25 26 28 28 26 27 25 23 22 22 24 25 25 25 25 26 26 26 26 26 25 25 25 25 26 26 27 28 28 29 28 28 28 27 27 27 26 26 25 24 23 22 22 21 21 20 20 19 19 18 18
29 32 28 24 25 30 33 33 33 33 33 32 29 27 27 26 23 21 21 21 21 16 13 11 11 12 12 14 19 20 18 19 19 19 21 24 25 27 28 27 26 26 24 23 23 23 24 25 24 24 25 25 25 26 26 26 25 25 25 25 26 26 27 28 28 28 28 28 28 28 27 27 26 25 24 24 23 22 22 21 21 20 20 19 18 18
26 29 31 27 25 27 30 32 32 32 32 32 29 27 27 27 25 22 19 20 21 19 16 12 10 10 11 14 18 19 17 17 18 18 19 22 24 26 27 27 26 26 26 25 25 24 24 24 24 24 24 25 25 25 26 26 25 25 25 25 25 26 26 27 27 27 28 27 27 28 27 27 26 25 25 24 24 23 22 21 21 20 20 19 19 18
26 29 29 28 26 24 26 29 32 31 30 31 32 29 27 28 28 23 19 19 20 20 18 13 10 9 9 9 14 17 16 16 15 16 18 20 22 26 27 27 26 26 27 26 25 24 24 24 24 23 24 24 24 25 26 26 25 24 25 25 25 26 26 27 26 27 27 27 27 27 27 26 26 26 26 25 24 23 22 21 21 21 20 20 19 19
26 28 27 25 25 24 23 26 31 33 32 31 32 33 29 28 28 25 21 19 19 21 21 15 11 11 7 4 9 14 15 15 13 14 18 19 21 25 27 27 27 26 26 27 25 24 24 23 23 23 23 23 24 25 26 26 25 25 24 24 24 25 26 26 26 26 26 27 27 27 27 27 26 26 26 25 24 24 23 22 21 21 21 20 20 19
28 29 27 25 24 23 23 24 29 33 33 30 31 34 33 29 28 27 23 20 19 20 22 19 14 13 10 6 8 11 12 13 12 13 16 17 19 24 26 27 27 25 25 25 25 25 25 23 23 24 23 23 24 25 26 26 25 25 24 24 24 24 25 25 26 26 26 26 26 26 26 26 26 26 25 25 24 24 23 22 22 21 21 21 21 20
29 30 30 29 26 23 22 22 26 33 33 30 30 33 34 33 28 26 24 22 20 19 20 20 17 16 14 11 11 11 11 11 10 11 12 14 17 21 24 25 25 24 24 24 25 26 25 23 24 24 24 24 24 24 24 24 24 24 24 24 24 24 24 25 25 26 26 26 26 26 26 26 26 25 25 25 24 24 23 23 23 22 22 22 21 21
27 29 29 29 27 26 24 19 21 30 34 32 31 31 34 36 32 27 25 23 20 18 18 20 18 17 16 15 15 15 12 12 12 12 12 13 16 20 24 26 25 24 24 24 25 25 24 24 23 23 23 24 24 24 23 23 23 24 24 24 24 24 24 24 25 25 25 26 25 25 25 25 25 25 25 25 24 24 24 23 23 23 22 22 22 22
25 29 27 27 27 26 25 21 18 22 28 30 32 31 31 35 36 31 26 23 21 18 18 19 19 17 16 15 15 15 14 14 14 13 12 13 16 19 21 24 24 23 23 24 25 24 24 24 23 22 22 23 24 24 23 22 23 23 23 23 24 24 24 24 24 25 25 25 25 25 25 25 24 24 25 25 25 25 24 24 24 23 23 23 22 22
24 26 24 24 27 26 24 22 20 19 21 24 29 31 29 32 37 33 26 23 22 19 18 19 18 16 15 14 13 13 15 15 14 13 12 13 16 17 18 20 22 22 23 24 24 24 24 23 22 22 22 23 23 24 23 23 23 23 23 23 23 23 23 23 24 24 24 25 25 25 25 25 24 24 25 25 25 25 25 24 24 24 23 23 22 22
21 24 23 23 26 27 25 22 20 19 20 21 24 27 26 27 34 35 29 24 22 20 19 18 16 14 14 15 14 14 15 14 13 13 13 13 14 15 17 19 20 21 23 23 23 23 23 22 22 22 23 23 23 24 24 23 23 24 23 23 22 23 23 23 23 24 24 24 24 25 25 25 25 25 25 25 25 25 25 25 24 24 23 23 23 22
21 22 23 23 24 27 28 25 21 19 20 21 22 25 23 22 27 33 31 25 22 21 20 18 17 17 17 17 16 14 14 14 14 14 14 14 13 14 16 17 18 19 20 21 21 21 21 21 21 21 22 22 22 23 24 23 23 24 24 23 22 22 22 22 22 23 24 24 24 25 25 25 25 25 25 25 25 24 25 25 25 24 24 23 23 23
22 21 22 23 23 26 27 26 22 19 20 22 23 24 22 18 20 28 32 27 22 21 21 19 19 20 19 18 17 16 16 16 17 16 15 14 14 15 16 16 16 18 19 19 18 18 19 19 19 20 20 21 22 23 24 24 23 23 23 23 23 22 22 22 22 21 22 23 23 24 24 25 25 26 26 25 25 25 25 25 25 25 24 24 23 23
23 21 23 25 25 25 25 24 21 19 21 22 22 22 20 15 14 20 27 27 23 20 21 21 20 20 20 19 18 19 19 19 18 17 15 14 14 15 15 13 14 16 16 16 16 16 17 17 17 18 19 20 21 22 23 23 23 23 23 23 23 23 22 22 22 21 21 21 22 22 23 23 24 26 26 26 26 26 26 26 26 25 25 24 24 23
24 22 23 25 26 26 25 24 22 22 23 23 21 20 17 14 15 17 19 21 20 17 19 24 22 19 20 20 19 20 21 19 17 15 14 13 14 15 14 12 12 13 13 13 14 14 15 15 15 15 16 17 18 19 21 22 22 22 22 22 22 23 22 22 22 21 21 21 21 22 22 22 22 24 25 26 26 26 26 26 26 26 25 25 25 24
26 24 23 24 26 26 25 25 25 24 23 22 20 17 15 14 16 17 17 17 16 13 16 23 24 21 20 20 20 21 21 19 16 14 13 13 13 14 13 12 12 12 12 12 12 13 14 13 14 14 14 14 15 16 18 20 21 22 22 22 22 22 22 22 22 22 22 21 21 22 22 22 21 22 23 25 26 27 27 27 27 26 26 26 25 25
28 26 24 24 25 25 24 25 26 23 22 21 19 16 16 14 15 18 19 17 16 15 14 18 23 23 22 21 22 22 21 19 17 14 12 12 12 13 13 12 11 12 11 11 11 11 11 12 12 13 14 14 15 16 17 17 19 20 21 22 22 22 22 22 23 23 23 22 22 22 22 22 22 21 21 23 24 26 27 27 27 27 26 26 26 26
29 28 26 24 25 24 23 23 24 23 22 22 18 17 17 15 15 19 20 17 16 16 14 16 20 22 22 22 23 23 21 20 19 17 14 13 12 13 13 12 11 11 11 11 11 10 10 10 11 12 13 13 14 15 16 16 17 18 19 21 22 23 23 22 23 23 23 23 23 22 22 22 22 22 22 22 23 23 24 26 26 26 26 26 26 26
28 28 27 26 26 25 24 24 22 22 22 20 18 19 18 16 18 21 20 17 16 16 15 16 18 20 21 21 22 23 23 22 21 19 16 15 14 13 13 13 12 12 10 10 11 11 11 11 11 11 12 12 13 15 16 17 17 17 18 19 20 22 23 24 24 24 24 24 24 23 23 23 22 22 22 23 23 23 23 23 24 25 25 26 26 25
27 28 28 28 27 26 26 25 23 22 21 19 18 18 18 19 21 22 20 18 18 18 17 17 18 19 20 21 21 23 24 23 22 20 17 16 15 14 13 12 12 12 11 10 10 11 11 11 11 12 12 12 13 15 16 17 17 18 18 18 18 20 22 24 24 24 25 25 25 24 24 23 23 22 22 23 23 22 22 22 23 23 24 24 25 25
24 26 28 29 28 26 26 24 23 23 22 20 18 17 17 20 22 21 19 21 21 20 19 18 19 19 20 22 23 24 23 22 22 20 18 16 15 14 14 13 12 12 11 11 11 12 12 12 12 13 13 13 14 15 16 17 17 18 18 18 18 19 20 22 24 25 25 25 25 25 25 24 23 22 22 23 23 23 23 22 23 23 23 23 24 24
23 24 26 28 28 28 27 24 23 24 22 21 19 16 16 21 24 21 20 22 22 20 20 20 20 20 20 22 24 24 22 21 20 18 16 16 15 15 14 14 13 13 12 12 12 12 13 13 13 13 13 13 14 15 16 17 17 17 18 18 17 18 18 19 21 23 24 24 24 24 25 24 23 22 22 22 22 22 23 23 23 23 23 23 23 24
21 23 24 25 26 27 27 25 24 25 23 20 20 18 18 22 24 23 23 22 21 20 21 21 21 20 20 21 22 22 22 20 19 18 16 16 16 15 15 15 14 14 14 13 13 13 14 14 15 15 14 14 14 15 15 16 16 17 17 16 16 16 17 16 17 20 22 23 23 23 24 24 24 23 22 22 22 22 22 23 23 24 24 24 24 24
19 21 23 23 23 24 25 24 24 25 24 20 20 20 20 21 23 24 24 23 21 22 22 22 21 21 21 21 21 21 20 19 18 17 17 16 17 16 16 17 17 16 16 15 15 15 15 15 15 15 15 15 15 15 15 16 16 16 16 16 15 16 16 15 16 17 19 21 22 22 23 24 24 23 23 22 23 23 22 22 23 24 24 25 25 25
18 20 23 24 24 24 26 25 25 25 24 21 20 22 22 22 22 23 24 23 23 23 23 23 22 21 21 21 21 21 20 18 17 17 16 17 17 17 18 19 19 19 19 19 17 17 17 17 16 16 16 16 16 16 16 16 17 16 17 17 17 16 16 16 17 17 18 19 21 21 22 23 23 23 23 23 23 23 23 23 23 23 24 25 25 25
19 19 21 23 24 25 27 28 26 25 23 22 21 23 24 25 24 23 23 24 24 24 24 23 23 22 21 21 21 21 20 19 18 17 17 17 18 18 19 20 21 21 21 20 19 19 19 19 18 17 17 17 17 17 17 17 17 17 18 18 18 18 18 17 17 18 18 19 20 21 22 22 22 22 22 23 23 23 24 24 24 23 24 24 25 26
19 18 20 21 22 23 26 27 26 25 25 25 24 24 24 26 27 25 24 24 25 26 25 24 24 23 22 21 21 20 20 19 18 18 18 18 18 19 20 21 21 22 22 22 21 20 20 20 20 18 18 18 19 19 19 19 18 18 18 19 19 19 19 19 18 18 18 19 20 21 21 22 22 22 22 22 23 23 24 24 24 24 24 24 25 25
20 19 20 22 22 23 26 27 27 28 28 27 26 26 25 25 27 28 28 27 27 27 27 26 25 24 23 22 22 21 21 21 20 20 20 19 19 19 20 20 21 22 22 22 22 21 21 20 20 20 19 19 20 20 20 20 19 19 19 19 19 20 20 20 19 18 18 19 20 21 21 21 21 21 21 22 22 23 23 23 24 24 24 24 25 25
20 20 22 24 24 25 26 26 26 28 29 27 26 25 24 24 26 28 29 29 30 30 29 29 28 26 25 24 24 23 22 22 22 21 21 21 20 20 20 20 21 22 22 22 22 22 22 21 21 21 20 21 21 21 21 21 20 19 19 19 19 20 21 21 20 19 19 19 20 21 21 21 22 21 21 21 21 21 21 22 23 24 24 24 24 24
19 20 22 24 25 26 26 24 24 27 30 29 27 26 25 25 27 27 28 29 30 31 31 30 30 29 28 27 26 26 25 24 23 23 22 22 22 21 21 21 21 22 22 22 22 22 22 22 21 21 21 21 21 21 22 22 21 20 19 19 19 19 20 21 21 20 20 20 20 21 22 22 23 22 21 21 21 20 20 20 21 22 22 22 22 22
19 20 21 24 27 29 29 27 26 30 33 32 29 28 28 27 28 29 29 28 29 30 31 30 30 30 30 29 28 28 27 26 26 25 24 24 23 22 22 22 22 22 22 22 21 22 23 22 22 21 21 21 20 20 21 21 20 20 20 19 19 19 20 20 21 20 20 20 20 21 21 22 22 22 22 22 22 21 20 20 20 20 20 20 20 20
Wind_Direction
221 226 226 224 223 221 221 222 224 223 223 225 227 227 225 226 230 231 231 231 217 210 213 211 212 216 216 212 201 194 193 194 198 202 204 204 202 202 202 201 200 201 201 201 202 201 197 196 197 199 199 198 196 195 194 194 193 191 190 189 188 188 189 188 187 186 188 188 187 187 187 185 186 185 182 181 179 177 175 173 173 172 169 165 162 162
223 228 228 225 224 223 221 222 223 223 223 224 228 231 227 224 226 228 230 230 222 215 214 213 214 217 214 210 203 198 197 199 202 206 208 209 210 209 205 202 201 203 203 202 204 203 198 197 197 198 199 197 197 196 195 195 195 193 191 190 189 189 190 189 188 188 189 190 189 189 188 186 187 187 185 182 181 180 176 174 175 176 173 169 166 165
225 229 227 223 224 224 223 222 221 223 224 223 225 230 231 227 225 226 228 227 222 219 214 211 214 216 213 211 209 207 207 206 207 210 212 210 210 209 205 204 202 203 204 204 206 205 200 197 196 198 199 198 199 198 196 196 196 194 193 192 190 190 191 191 189 189 190 191 191 190 190 189 188 189 188 185 183 182 180 179 180 181 179 174 171 169
225 229 225 223 223 222 223 223 221 222 223 223 223 226 230 230 228 224 224 224 224 222 215 211 214 217 218 219 216 213 212 211 210 212 212 209 209 209 207 206 203 202 204 205 206 207 203 199 197 199 199 199 199 198 196 196 195 195 194 193 192 191 191 192 191 191 191 192 192 192 192 191 190 191 190 188 186 184 183 183 183 185 185 181 177 175
226 227 221 221 223 221 222 222 221 221 223 224 223 223 225 227 229 227 223 225 226 223 215 210 216 222 223 224 222 216 212 211 211 212 210 208 209 210 209 208 205 204 204 204 205 208 207 203 201 199 198 198 199 199 197 196 196 195 195 194 193 192 192 193 193 192 192 193 192 192 192 191 191 191 191 190 189 187 185 185 186 188 188 185 182 181
227 225 219 220 222 222 222 222 221 220 222 224 224 223 223 224 227 230 229 226 225 223 214 208 217 227 224 221 219 215 213 212 212 214 212 208 208 210 210 209 207 206 205 205 206 208 209 207 203 200 198 198 199 199 198 197 197 196 195 195 194 193 194 195 194 193 194 195 194 193 193 192 191 191 192 193 193 192 188 186 188 191 192 189 187 187
226 224 223 221 220 221 223 223 221 219 222 225 222 221 222 224 227 231 233 228 226 226 217 211 218 228 224 220 217 215 216 215 215 219 218 212 209 210 211 210 208 208 208 208 209 210 211 209 205 202 201 200 199 198 196 196 198 198 197 197 196 195 195 196 196 195 195 196 196 196 196 196 194 194 195 195 195 195 193 191 192 195 197 196 193 193
223 222 224 223 220 221 223 223 220 218 222 224 219 218 220 224 228 230 231 229 229 231 223 217 219 225 225 223 220 218 218 219 220 223 221 215 211 210 211 211 208 208 209 210 211 211 212 211 207 204 202 200 198 196 195 196 197 198 198 197 197 197 197 197 197 197 197 197 197 198 199 199 198 197 197 197 197 198 197 196 196 199 202 203 199 198
220 221 223 222 221 222 222 222 219 217 222 223 218 218 219 221 226 229 229 228 230 234 231 221 218 223 228 226 224 221 220 222 223 223 221 218 214 210 210 210 208 208 209 209 209 211 212 210 208 204 201 200 197 195 195 195 197 198 199 198 197 197 198 198 198 198 198 198 199 199 200 201 201 200 199 199 199 200 199 200 200 201 205 207 204 201
222 222 222 222 223 223 221 220 219 219 221 220 219 221 220 220 222 226 228 229 231 233 231 224 217 220 229 230 227 223 220 222 225 225 223 219 216 212 210 209 210 210 210 209 209 211 211 209 207 204 201 199 197 195 195 196 197 198 199 199 198 198 199 199 199 199 200 200 200 201 202 202 202 201 200 199 201 201 201 201 203 204 206 209 209 207
225 223 221 223 224 223 221 219 218 219 219 217 218 220 221 220 219 223 227 229 233 231 227 226 221 220 228 230 227 224 220 221 225 227 224 218 214 211 209 210 211 211 212 212 211 213 212 208 205 203 200 199 199 197 197 197 198 199 200 200 199 199 199 200 200 200 201 202 202 203 203 203 202 201 200 200 201 203 204 204 205 207 208 209 213 213
225 223 222 222 222 221 220 219 218 217 216 215 215 216 220 221 216 218 223 225 231 231 228 228 227 227 231 232 230 225 219 219 225 225 219 215 213 209 209 210 210 209 211 212 211 211 210 207 205 203 201 200 199 199 199 199 200 200 201 201 200 200 200 200 201 201 202 203 204 205 205 205 204 203 202 202 203 205 207 207 208 209 210 211 215 216
224 224 224 222 220 219 218 218 217 214 213 213 213 212 215 217 214 215 219 222 229 233 229 229 232 232 234 235 230 222 216 218 225 224 214 211 212 209 208 209 208 207 208 208 209 209 208 207 206 204 202 200 200 200 200 200 201 201 201 201 200 200 200 201 202 202 203 204 205 206 206 206 206 205 205 206 207 208 209 211 210 210 211 213 215 217
223 224 224 222 220 217 216 216 214 212 210 211 212 210 211 213 214 217 219 223 230 232 229 230 235 236 236 237 229 220 218 221 225 223 212 207 209 208 206 206 206 205 205 207 208 208 209 208 206 204 201 200 201 202 202 201 201 201 202 202 202 201 202 202 203 203 203 204 205 206 206 207 206 206 207 208 210 210 211 212 213 213 213 214 215 217
222 222 221 220 219 214 215 216 214 212 210 211 212 211 213 215 216 218 220 222 227 230 226 226 232 234 231 233 230 223 222 222 222 220 211 206 209 209 206 204 204 206 208 211 211 210 210 209 206 203 201 201 201 201 202 203 202 201 201 202 202 202 202 203 203 203 203 204 205 206 207 207 206 207 208 210 211 211 211 213 214 215 215 216 217 218
223 225 221 220 219 215 214 215 213 211 212 211 211 213 216 215 216 221 222 220 221 226 223 223 229 233 232 233 229 225 226 225 221 217 212 209 210 210 207 205 206 209 212 213 213 211 211 209 205 203 202 202 200 200 203 203 202 201 201 202 203 203 203 203 204 204 204 204 205 206 207 207 207 207 208 210 212 212 212 214 216 218 217 217 218 219
223 225 220 217 219 217 214 213 212 212 212 209 210 215 215 213 215 220 221 219 221 228 227 225 232 235 237 239 231 225 228 229 223 218 215 211 208 208 209 207 207 209 210 212 212 210 209 208 206 205 205 203 201 201 203 203 202 201 201 202 203 203 203 204 205 205 205 205 205 206 207 207 207 208 209 211 212 213 214 215 217 219 220 219 219 221
224 227 221 215 217 217 214 213 213 214 213 209 210 213 211 212 218 220 219 218 219 228 230 226 229 230 230 234 231 226 227 226 222 220 219 214 208 208 208 208 207 207 208 210 209 209 208 208 208 207 206 204 203 203 203 203 202 201 202 202 203 203 203 204 205 206 206 206 206 206 207 208 208 209 211 213 213 214 215 216 218 220 221 222 222 223
224 228 222 216 216 215 212 212 213 214 214 213 212 210 209 212 215 215 216 216 217 225 230 227 228 227 225 226 226 225 224 222 220 218 217 214 210 209 208 208 208 206 207 209 210 209 208 207 208 207 206 204 203 203 203 203 203 202 203 203 203 204 204 204 205 206 207 207 207 207 208 209 210 211 213 214 215 216 217 218 219 221 223 224 224 225
221 225 223 217 213 211 211 211 211 211 212 213 211 208 210 214 214 213 216 218 217 222 228 228 228 228 228 225 221 221 220 218 218 216 215 212 209 210 209 207 208 207 207 209 210 208 205 205 205 205 204 204 203 203 203 203 203 203 203 203 204 204 204 204 204 205 206 207 208 209 209 210 212 213 214 215 216 217 218 219 221 222 224 225 226 227
217 220 222 218 210 207 210 212 210 208 207 209 210 206 207 211 212 213 217 219 219 222 223 225 230 233 233 229 223 220 218 215 214 212 213 211 208 208 208 207 208 207 205 206 206 204 202 203 204 203 203 203 203 204 203 203 203 203 204 204 203 203 202 203 204 204 206 207 208 210 211 212 213 214 216 217 218 219 220 221 222 224 226 226 227 227
216 218 219 218 211 209 211 212 210 208 208 209 211 209 206 207 208 210 215 218 218 223 222 220 230 236 237 235 224 218 216 213 208 208 210 209 207 207 207 206 206 204 202 202 202 202 201 201 202 202 202 202 202 203 203 202 202 203 204 204 203 202 202 203 204 205 207 208 209 211 212 214 215 216 217 218 219 220 220 222 223 225 226 227 228 228
216 214 214 216 216 215 214 211 209 208 208 210 213 213 210 209 209 210 213 213 214 221 225 227 232 236 248 244 221 211 210 206 203 205 207 208 207 205 204 203 203 203 201 200 201 202 202 201 201 201 202 202 202 202 201 200 200 202 203 204 203 202 201 202 203 205 207 209 211 212 213 215 216 217 218 218 219 220 220 222 223 225 226 227 228 229
213 210 210 213 216 220 217 210 207 207 207 210 213 213 211 211 210 212 214 210 211 217 220 225 227 230 258 252 209 198 197 195 201 206 205 207 206 202 201 200 200 201 201 201 202 203 202 201 199 201 202 202 203 203 202 201 200 201 202 203 204 203 202 202 204 205 207 209 211 213 214 215 216 217 217 218 219 220 220 222 224 225 226 226 227 228
212 208 207 208 209 213 214 206 204 204 206 210 211 211 212 211 207 210 214 211 212 216 215 216 219 221 240 233 184 183 184 186 199 206 203 204 201 198 198 197 197 199 201 202 202 200 200 200 200 201 202 202 203 203 202 201 201 202 202 203 203 204 203 204 205 206 208 210 212 213 214 214 215 216 217 218 219 220 221 222 224 225 225 226 227 228
211 207 206 205 203 204 207 206 204 202 203 209 209 208 211 211 205 206 211 211 212 214 213 214 216 217 221 200 171 175 180 190 204 205 199 196 193 195 197 195 195 198 201 201 198 197 199 200 200 200 201 202 202 201 201 202 203 204 204 203 203 204 204 205 206 207 209 211 212 213 214 214 215 216 217 219 220 220 221 222 224 225 225 226 227 229
207 207 207 205 204 206 208 212 210 202 200 206 208 206 208 211 208 205 207 212 211 208 211 214 211 212 217 210 196 195 195 199 201 194 190 187 186 190 193 194 196 198 198 196 192 193 196 195 196 198 199 201 200 199 201 203 204 205 205 204 204 205 205 205 206 207 209 210 212 213 214 214 216 217 218 219 220 221 222 223 224 225 225 227 228 230
205 206 208 207 209 210 211 216 211 202 200 204 208 208 206 208 211 208 205 209 207 202 210 213 205 205 214 217 218 217 209 202 195 188 190 189 184 187 191 195 198 197 194 192 189 190 192 193 195 198 199 201 201 201 202 203 204 205 205 205 205 206 206 206 207 208 209 210 211 213 214 215 217 218 220 221 222 223 224 224 224 225 226 227 228 230
204 202 205 210 212 211 211 213 210 203 203 204 207 209 205 205 209 211 207 206 204 203 209 208 199 202 212 216 218 214 204 199 194 185 183 179 174 179 185 188 191 193 192 189 187 188 191 193 196 198 199 201 201 202 204 203 203 204 205 205 205 206 208 208 208 209 210 211 212 213 215 217 218 219 221 222 223 224 225 225 225 226 227 228 229 231
204 202 206 212 212 209 208 209 211 209 203 201 204 207 206 205 207 210 209 205 204 206 207 201 197 204 212 206 200 194 189 189 185 177 171 167 166 169 172 176 182 187 189 189 187 188 191 194 196 199 201 201 202 204 205 203 202 203 204 205 206 207 208 209 209 210 211 213 214 215 217 218 219 220 221 222 224 226 226 227 227 227 227 229 230 231
206 205 209 209 206 205 203 206 216 214 204 201 202 203 206 206 205 207 209 207 203 204 202 194 189 197 200 190 182 181 179 175 171 168 163 158 160 164 167 172 177 181 185 188 189 192 195 197 198 201 202 202 203 205 205 204 203 204 205 206 207 207 208 209 209 210 212 214 215 217 219 220 221 222 223 224 225 226 227 228 228 228 228 229 231 232
208 207 207 203 202 203 201 206 217 216 209 209 205 201 202 205 205 205 205 206 202 200 197 187 180 185 187 182 177 176 173 169 163 159 156 152 151 154 158 164 169 174 179 185 190 196 199 200 201 202 202 204 205 205 205 205 204 204 206 207 207 207 208 209 209 210 212 213 215 217 220 221 223 224 225 226 227 228 228 228 228 228 228 229 230 231
210 209 206 203 203 202 201 207 213 213 212 211 205 197 195 202 209 204 202 205 202 197 194 188 185 187 185 181 178 172 169 169 167 162 158 154 149 148 150 156 164 172 178 183 189 194 196 198 201 202 204 206 207 206 206 206 205 206 206 207 207 207 208 210 211 212 213 214 215 217 220 222 224 225 226 227 228 229 229 228 227 228 228 229 230 231
211 210 206 202 202 203 205 206 205 205 207 203 196 192 190 196 203 197 198 204 204 202 198 189 185 187 183 180 179 173 169 169 168 163 158 154 150 146 144 150 162 172 178 182 186 189 191 194 198 199 202 204 204 205 205 206 207 208 208 208 209 209 210 212 214 216 216 217 218 218 220 222 224 226 227 228 228 229 229 228 228 228 229 230 230 231
213 211 207 203 203 205 204 200 197 202 205 197 189 189 191 196 195 186 186 195 201 207 200 187 182 184 183 181 179 175 172 168 163 159 155 153 153 151 148 150 155 161 169 175 178 183 186 187 189 192 195 197 199 202 204 206 209 210 211 212 212 212 213 215 217 219 219 220 221 221 220 222 224 226 228 228 228 228 228 229 229 229 230 231 231 233
212 209 206 205 204 202 200 198 198 203 204 194 187 188 194 201 199 188 181 185 192 199 195 188 186 184 181 180 178 176 174 170 165 162 157 155 157 160 163 163 159 159 164 167 171 179 184 186 189 192 194 197 199 200 203 207 210 211 213 215 216 217 218 218 219 221 221 222 223 223 222 222 223 226 227 227 228 228 228 228 229 230 231 232 233 235
210 207 204 204 201 198 201 202 201 201 199 193 192 196 198 203 202 189 180 181 187 189 189 191 191 186 181 181 180 178 176 176 179 181 174 168 170 172 176 176 171 169 172 174 176 181 186 189 194 198 201 203 204 205 206 209 212 213 216 218 219 220 221 222 223 223 223 224 225 226 226 224 224 225 226 226 227 228 229 229 230 231 232 233 234 235
208 205 203 203 201 199 201 200 199 200 198 197 204 209 206 209 206 187 175 176 183 183 182 188 188 186 185 186 185 184 182 183 190 196 193 187 185 184 185 187 186 183 183 186 189 193 196 196 196 200 203 207 210 213 214 215 215 217 219 221 221 222 222 224 226 227 227 226 226 227 228 227 226 227 227 226 227 228 229 230 231 232 233 234 234 235
208 206 203 203 203 203 201 197 197 198 197 201 212 212 212 218 208 187 175 176 184 183 179 180 181 182 186 188 188 189 190 191 195 200 199 195 192 192 191 193 197 198 196 197 197 198 202 202 202 204 207 212 217 220 222 223 223 224 225 225 226 225 224 225 226 227 228 229 228 228 228 229 228 228 227 226 226 228 229 230 231 232 232 233 233 234
207 205 203 203 203 204 202 200 199 198 198 207 215 212 217 220 203 187 180 182 188 187 182 181 181 182 186 188 189 192 195 196 199 201 200 196 193 194 194 196 202 205 208 210 206 203 205 207 210 214 217 221 225 226 227 229 230 230 231 231 230 228 228 229 228 227 228 229 229 228 228 229 229 228 227 226 226 227 228 229 230 230 231 232 233 234
206 203 202 202 203 205 204 203 203 201 202 210 212 211 218 212 194 182 184 190 193 191 186 184 186 187 189 190 190 194 196 197 199 201 201 199 198 198 199 202 206 209 214 218 216 215 217 218 222 226 227 228 228 228 230 232 233 234 234 234 233 232 232 232 231 228 227 228 228 228 228 228 228 227 227 226 226 226 226 227 228 229 230 232 233 235
206 204 202 202 204 206 205 205 206 205 207 214 213 210 208 199 189 186 190 194 195 192 188 189 191 193 194 193 193 196 198 199 201 202 203 204 206 209 211 213 215 217 221 224 223 224 226 226 228 231 231 230 230 231 231 231 233 235 234 233 234 234 235 234 231 228 226 226 226 226 227 227 227 227 226 226 226 226 227 227 228 229 232 234 235 237
205 206 203 201 203 205 205 205 205 205 212 219 215 206 199 194 193 195 196 195 193 191 192 195 195 197 199 199 199 201 202 204 205 205 207 210 212 216 219 221 223 226 231 233 231 230 230 229 229 231 230 230 233 233 231 231 233 234 232 231 234 235 235 235 231 226 225 225 225 225 226 227 227 227 227 226 226 226 228 229 230 231 234 236 237 239
203 206 204 202 202 202 201 202 202 206 213 215 207 200 198 198 198 197 195 195 196 196 198 200 201 202 203 203 205 207 207 208 208 208 211 214 216 220 223 226 230 234 238 241 238 234 234 232 231 231 231 233 235 235 232 232 233 233 230 231 235 236 235 236 233 228 225 225 225 225 226 227 228 228 228 228 228 228 230 231 233 235 237 238 239 241
206 207 206 205 204 202 202 202 203 207 210 208 203 201 201 203 204 199 195 196 199 201 203 204 205 207 207 207 210 211 213 216 217 216 218 219 222 226 230 233 237 239 242 244 240 236 237 236 234 233 233 234 235 235 235 234 234 234 234 234 236 236 235 237 236 231 227 227 227 227 226 227 228 229 229 230 230 231 232 234 236 238 240 240 241 243
210 209 209 210 209 207 206 205 207 210 212 210 208 207 206 207 209 206 200 199 203 205 206 207 209 211 211 213 215 215 217 220 222 224 227 229 232 236 237 239 241 241 243 244 241 238 239 239 239 237 234 234 235 236 238 238 237 238 238 237 237 237 237 238 238 234 230 229 229 228 228 228 229 230 230 231 232 234 235 237 240 241 243 243 244 245
214 212 213 215 214 211 209 208 210 215 217 216 215 215 215 214 212 211 208 206 207 208 209 210 212 213 214 216 219 220 221 222 224 228 232 235 237 239 240 241 242 241 243 244 242 240 240 241 241 239 237 238 238 238 240 240 240 240 240 239 239 239 238 239 239 236 232 231 230 230 230 230 231 232 232 233 234 236 237 239 241 244 245 246 246 247
222 221 220 219 218 216 215 216 218 219 219 218 217 218 220 219 216 215 216 215 212 212 213 214 215 215 216 218 220 222 224 225 227 231 233 234 237 239 239 241 241 241 242 244 243 240 240 242 242 240 240 241 239 239 241 242 241 241 242 241 241 240 238 239 239 237 233 232 231 231 232 233 234 234 235 235 236 237 239 240 242 245 247 248 249 249
229 228 227 225 223 220 218 219 221 220 218 218 218 218 220 221 218 217 219 220 219 217 217 219 220 220 220 222 224 225 226 227 229 233 234 234 237 239 239 240 241 240 241 243 241 238 238 240 240 240 241 241 240 241 242 241 241 242 242 241 241 240 239 239 238 237 235 234 233 232 233 236 237 237 236 236 236 237 240 243 244 246 247 250 251 251
231 230 230 228 225 223 221 221 223 221 218 219 220 220 221 223 222 219 219 220 220 220 219 220 222 224 225 226 228 228 229 231 233 235 236 237 238 240 239 239 241 241 241 243 242 238 236 237 237 238 239 240 242 244 243 241 241 242 242 241 241 241 240 240 239 238 237 236 236 234 235 236 238 238 238 237 237 239 242 245 248 249 249 250 251 253
232 233 233 231 229 228 228 230 230 224 221 222 226 227 224 224 225 225 223 221 221 221 221 221 224 227 229 230 231 231 232 234 236 238 239 239 239 239 240 241 242 242 243 244 244 240 237 237 237 237 238 240 244 246 243 241 242 243 242 242 242 242 242 242 240 239 237 238 237 236 236 237 238 239 239 239 239 240 241 244 247 250 251 252 252 252